Home   Weather   Rankweil   Past weeks

Flag for Austria Past Weather in Rankweil, Vorarlberg, Austria — Yesterday and Last 2 Weeks

Now
69 °F

Mild.


Feels Like: 69 °F
Forecast: 53 / 66 °F
Wind: 2 mph from Northeast

Location: Feldkirch

Current Time: Sep 26, 2016 at 5:44:05 PM

Latest Report: Sep 26, 2016 at 4:00 PM


Visibility: N/A

Pressure: 30.06 "Hg

Humidity: 68%

Dew Point: 58 °F

Location of RankweilLocation

Past Weather in Rankweil — Graph

°F

Rankweil Temperature Yesterday

Maximum temperature yesterday: 69 °F (at 4:00 PM)
Minimum temperature yesterday: 47 °F (at 7:00 AM)
Average temperature yesterday: 59 °F

High & Low Weather Summary for the Past Weeks

 TemperatureHumidityPressure
High82 °F (Sep 12, 3:00 PM)100% (Sep 20, 3:00 AM)30.33 "Hg (Sep 20, 3:00 AM)
Low47 °F (Sep 25, 7:00 AM)41% (Sep 15, 7:00 AM)29.77 "Hg (Sep 15, 7:00 AM)
Average61 °F79%30.04 "Hg
* Reported Sep 11 4:00 PM — Sep 26 4:00 PM, Rankweil, Weather by CustomWeather, © 2016

Note: Actual official high and low records may vary slightly from our data, if they occured in-between our weather recording intervals... More about our weather records

Advertising

Rankweil Weather History for the Previous 24 Hours

Scroll right to see more
 ConditionsComfort  
Time TempWeatherWind HumidityBarometerVisibility
4:00 PM
Mon, Sep 26
69 °FMild.2 mph68%30.06 "HgN/A
3:00 PM69 °FMild.2 mph64%30.07 "HgN/A
2:00 PM68 °FMild.2 mph63%30.09 "HgN/A
1:00 PM68 °FMild.1 mph62%30.11 "HgN/A
12:00 PM65 °FMild.1 mph61%30.14 "HgN/A
11:00 AM64 °FPassing clouds.1 mph70%30.15 "Hg19 mi
10:00 AM60 °FCool.1 mph76%30.17 "HgN/A
9:00 AM56 °FCool.1 mph76%30.18 "HgN/A
8:00 AMN/APassing clouds.9 mphN/AN/A7 mi
7:00 AM49 °FPassing clouds.No wind91%30.19 "Hg19 mi
6:00 AM50 °FCool.1 mph92%30.19 "HgN/A
5:00 AM49 °FCool.No wind92%30.19 "HgN/A
4:00 AM50 °FCool.1 mph91%30.19 "HgN/A
3:00 AM52 °FCool.1 mph86%30.18 "HgN/A
2:00 AM52 °FCool.No wind84%30.18 "HgN/A
1:00 AM53 °FCool.1 mph88%30.18 "HgN/A
12:00 AM54 °FCool.1 mph85%30.18 "HgN/A
11:00 PM
Sun, Sep 25
55 °FCool.1 mph82%30.16 "HgN/A
10:00 PM55 °FCool.No wind81%30.16 "HgN/A
9:00 PM57 °FCool.1 mph82%30.15 "HgN/A
8:00 PM60 °FCool.2 mph80%30.12 "HgN/A
7:00 PM64 °FMild.1 mph69%30.09 "HgN/A
6:00 PM67 °FMild.1 mph60%30.07 "HgN/A
5:00 PM68 °FMild.2 mph58%30.06 "HgN/A
Weather by CustomWeather, © 2016

See weather overviewHow to use our weather pages